DateTime,F1_A11,F1_S11,BsB_S11,BsG_S11,BsR_S11,BbsB_S11,BbsG_S11,BbsR_S11,BaB_A11,BaG_A11,BaR_A11,T_S11,U_S11,P_S11,T1_A11
2016-11-29T00:00:00Z,0000388,21000608,,,,,,,,,,26.1,00.0,0637.2,34.7
2016-11-29T00:01:00Z,0000388,21000608,,,,,,,,,,26.1,00.0,0637.1,34.7
2016-11-29T00:02:00Z,0000388,21000608,,,,,,,,,,26.1,00.0,0637.1,34.7
2016-11-29T00:03:00Z,0000388,61000608,,,,,,,,,,26.1,00.0,0637.1,34.7
2016-11-29T00:04:00Z,0000388,41000608,0001.48,0000.58,0000.67,-000.51,0000.46,0000.13,0000.09,0000.24,-000.24,26.1,00.0,0637.9,34.7
2016-11-29T00:05:00Z,0000388,01000608,0002.09,0001.42,0000.93,0000.72,0000.46,0000.68,0000.23,0000.11,0000.52,26.1,00.0,0637.9,34.7
2016-11-29T00:06:00Z,0000388,01000608,0001.09,0000.92,0000.92,0000.44,-000.16,0000.45,-000.05,0000.01,0000.12,26.1,00.0,0637.9,34.7
2016-11-29T00:07:00Z,0000388,01000608,0002.19,0001.01,0000.42,0000.65,0000.26,0000.36,0000.11,0000.19,-000.17,26.1,00.0,0637.8,34.7
2016-11-29T00:08:00Z,0000388,01000608,0002.94,0001.37,0000.75,0000.68,0000.32,0000.18,0000.16,0000.02,0000.29,26.1,00.0,0637.7,34.7
2016-11-29T00:09:00Z,0000388,01000608,0002.31,0001.40,0000.95,0000.14,0000.35,0000.78,0000.16,0000.30,0000.09,26.1,00.0,0637.5,34.7
2016-11-29T00:10:00Z,0000388,01000608,0003.17,0001.72,0001.04,-000.19,0000.03,0000.86,0000.33,0000.04,0000.03,26.1,00.0,0637.3,34.7
2016-11-29T00:11:00Z,0000388,01000608,0002.99,0002.05,0000.79,0000.14,-000.04,0000.35,0000.04,0000.15,0000.01,26.1,00.0,0637.1,34.7
2016-11-29T00:12:00Z,0000388,01000608,0002.08,0000.38,0000.02,0000.39,-000.05,0000.06,0000.28,0000.21,0000.06,26.1,00.0,0636.9,34.7
2016-11-29T00:13:00Z,0000388,01000608,0002.06,0000.35,0000.39,0000.46,0000.33,-000.09,0000.01,-000.02,0000.10,26.1,00.0,0636.8,34.7
2016-11-29T00:14:00Z,0000388,01000608,-000.04,0000.91,-000.14,-000.16,0000.19,0000.28,-000.01,0000.09,0000.18,26.1,00.0,0636.6,34.7
2016-11-29T00:15:00Z,0000388,01000608,0000.98,0000.48,0000.07,-000.47,0000.51,0000.05,0000.22,0000.09,-000.46,26.1,00.0,0636.5,34.7
2016-11-29T00:16:00Z,0000388,01000608,0002.39,0001.30,0000.42,0000.60,0000.23,0000.58,-000.04,0000.23,0000.36,26.2,00.0,0636.5,34.7
2016-11-29T00:17:00Z,0000388,01000608,0002.04,0000.50,0000.09,0000.74,-000.04,0000.23,0000.35,-000.11,-000.09,26.2,00.0,0636.4,34.7
2016-11-29T00:18:00Z,0000388,01000608,0001.69,0001.22,0000.10,0000.41,-000.04,0000.11,0000.06,0000.17,0000.23,26.2,00.0,0636.3,34.7
2016-11-29T00:19:00Z,0000388,01000608,0002.14,0000.47,0000.87,0000.73,0000.13,0000.74,-000.01,0000.03,0000.40,26.2,00.0,0636.3,34.7
2016-11-29T00:20:00Z,0000388,01000608,0000.37,0000.55,-000.11,0000.58,0000.24,0000.31,0000.10,0000.08,-000.33,26.2,00.0,0636.2,34.7
2016-11-29T00:21:00Z,0000388,01000608,0001.06,0000.19,0000.17,0000.38,0000.10,0000.38,0000.01,-000.05,-000.17,26.2,00.0,0636.2,34.7
2016-11-29T00:22:00Z,0000388,01000608,0001.23,0000.02,0000.02,0000.16,0000.62,0000.42,0000.07,0000.03,-000.05,26.2,00.0,0636.1,34.7
2016-11-29T00:23:00Z,0000388,01000608,0001.41,0001.15,0000.33,0000.55,0000.17,0000.21,0000.24,0000.26,0000.31,26.2,00.0,0636.1,34.7
2016-11-29T00:24:00Z,0000388,01000608,0001.38,0000.99,0000.47,0000.34,0000.26,-000.10,-000.07,-000.07,0000.12,26.2,00.0,0636.0,34.7
2016-11-29T00:25:00Z,0000388,01000608,0003.23,0000.95,0000.20,0000.44,0000.17,0000.26,0000.27,0000.24,-000.09,26.1,00.0,0636.0,34.7
2016-11-29T00:26:00Z,0000388,01000608,0003.03,0001.22,0000.54,0000.14,0000.36,-000.16,-000.05,-000.01,-000.05,26.1,00.0,0635.9,34.7
2016-11-29T00:27:00Z,0000388,01000608,0002.55,0001.25,0000.75,0000.06,0000.36,0000.15,0000.22,0000.13,0000.15,26.1,00.0,0635.9,34.7
2016-11-29T00:28:00Z,0000388,01000608,0002.14,0001.53,0000.19,0000.76,0000.23,-000.12,0000.05,0000.16,0000.06,26.1,00.0,0635.9,34.7
2016-11-29T00:29:00Z,0000388,01000608,0003.02,0000.97,0000.07,0000.83,-000.08,0000.02,0000.10,0000.17,0000.10,26.1,00.0,0635.9,34.7
2016-11-29T00:30:00Z,0000388,01000608,0002.74,0000.96,0001.00,0000.31,0000.14,0000.04,0000.29,0000.07,0000.16,26.1,00.0,0635.9,34.7
2016-11-29T00:31:00Z,0000388,01000608,0003.31,0000.99,0000.86,0000.34,0000.12,0000.43,0000.07,0000.03,0000.11,26.1,00.0,0636.0,34.7
2016-11-29T00:32:00Z,0000388,01000608,0001.86,0000.65,0000.37,-000.14,0000.06,0000.26,-000.05,0000.16,0000.07,26.1,00.0,0636.0,34.7
2016-11-29T00:33:00Z,0000388,01000608,0001.97,0001.77,0000.63,0000.09,0000.13,0000.15,0000.43,0000.04,0000.16,26.1,00.0,0636.1,34.7
2016-11-29T00:34:00Z,0000388,01000608,0002.96,0001.38,0000.89,0000.98,0000.27,0000.34,-000.00,0000.12,-000.17,26.1,00.0,0636.1,34.7
2016-11-29T00:35:00Z,0000388,01000608,0002.73,0001.21,0000.95,0000.76,0000.13,0000.47,0000.35,0000.35,0000.46,26.1,00.0,0636.1,34.7
2016-11-29T00:36:00Z,0000388,01000608,0002.93,0001.52,0001.14,0000.86,0000.37,0000.20,0000.03,0000.22,-000.07,26.1,00.0,0636.1,34.7
2016-11-29T00:37:00Z,0000388,01000608,0003.31,0001.45,0000.45,0001.27,0000.07,0000.42,0000.33,0000.16,0000.14,26.1,00.0,0636.1,34.7
2016-11-29T00:38:00Z,0000388,01000608,0002.56,0001.69,0000.81,0000.80,0000.18,0000.22,0000.31,0000.10,0000.19,26.0,00.0,0636.1,34.7
2016-11-29T00:39:00Z,0000388,01000608,0002.09,0000.93,0000.92,-000.08,0000.05,0000.34,0000.09,0000.27,0000.03,26.1,00.0,0636.1,34.7
2016-11-29T00:40:00Z,0000388,01000608,0002.94,0001.02,0000.65,0000.53,0000.27,0000.10,0000.10,0000.24,-000.07,26.1,00.0,0636.1,34.7
2016-11-29T00:41:00Z,0000388,01000608,0002.21,0000.58,0000.57,-000.29,0000.71,0000.16,0000.32,0000.07,0000.12,26.1,00.0,0636.2,34.7
2016-11-29T00:42:00Z,0000388,01000608,0002.25,0001.41,0000.53,0000.42,0000.42,0000.94,0000.12,0000.23,0000.43,26.1,00.0,0636.3,34.7
2016-11-29T00:43:00Z,0000388,01000608,0002.74,0001.66,0000.35,-000.09,0000.52,-000.07,0000.05,0000.07,-000.02,26.1,00.0,0636.3,34.7
2016-11-29T00:44:00Z,0000388,01000608,0003.11,0001.17,0000.40,0000.54,0000.34,0000.45,0000.28,0000.00,0000.14,26.1,00.0,0636.4,34.7
2016-11-29T00:45:00Z,0000388,01000608,0002.44,0001.26,0000.68,-000.02,0000.27,0000.03,0000.08,0000.20,0000.10,26.1,00.0,0636.4,34.7
2016-11-29T00:46:00Z,0000388,01000608,0002.17,0002.00,0000.96,0000.17,0000.36,-000.11,0000.01,0000.01,0000.02,26.1,00.0,0636.5,34.7
2016-11-29T00:47:00Z,0000388,01000608,0003.74,0001.74,0000.49,0000.05,0000.03,0000.42,0000.23,0000.16,0000.14,26.1,00.0,0636.6,34.7
2016-11-29T00:48:00Z,0000388,01000608,0002.41,0001.58,0000.84,0000.55,0000.25,0000.33,0000.25,0000.19,0000.05,26.1,00.0,0636.6,34.7
2016-11-29T00:49:00Z,0000388,01000608,0003.37,0001.05,0000.73,0000.36,0000.02,0000.44,0000.07,0000.08,0000.37,26.1,00.0,0636.7,34.7
2016-11-29T00:50:00Z,0000388,01000608,0003.11,0001.12,0000.27,0000.48,-000.08,0000.22,0000.07,0000.16,0000.22,26.1,00.0,0636.7,34.7
2016-11-29T00:51:00Z,0000388,01000608,0002.34,0001.08,0000.64,0000.69,0000.47,0000.38,0000.25,0000.24,0000.14,26.1,00.0,0636.7,34.7
2016-11-29T00:52:00Z,0000388,01000608,0002.46,0001.61,0000.43,0000.75,0000.47,0000.45,0000.09,0000.27,-000.01,26.1,00.0,0636.7,34.7
2016-11-29T00:53:00Z,0000388,01000608,0001.64,0001.68,0000.67,0000.49,-000.05,0000.59,-000.04,0000.06,0000.07,26.1,00.0,0636.8,34.7
2016-11-29T00:54:00Z,0000388,01000608,0003.13,0001.23,0000.73,0000.93,0000.48,0000.61,0000.43,0000.05,0000.29,26.1,00.0,0636.8,34.7
2016-11-29T00:55:00Z,0000388,01000608,0002.28,0001.46,0000.69,0000.21,0000.34,-000.11,0000.20,0000.15,-000.23,26.0,00.0,0636.9,34.7
2016-11-29T00:56:00Z,0000388,01000608,0003.10,0000.46,0000.77,0000.65,-000.20,0000.22,0000.04,0000.05,0000.41,26.0,00.0,0636.9,34.7
2016-11-29T00:57:00Z,0000388,41000608,,,,,,,,,,26.1,00.0,0637.0,34.7
2016-11-29T00:58:00Z,0000388,61000608,,,,,,,,,,26.0,00.0,0636.1,34.7
2016-11-29T00:59:00Z,0000388,21000608,,,,,,,,,,26.0,00.0,0636.0,34.7
2016-11-29T01:00:00Z,0000388,21000608,,,,,,,,,,26.0,00.0,0636.1,34.7
2016-11-29T01:01:00Z,0000388,21000608,,,,,,,,,,26.0,00.0,0636.1,34.7
2016-11-29T01:02:00Z,0000388,21000608,,,,,,,,,,26.1,00.0,0636.1,34.7
2016-11-29T01:03:00Z,0000388,61000608,,,,,,,,,,26.1,00.0,0636.1,34.7
2016-11-29T01:04:00Z,0000388,41000608,0002.41,0000.99,0000.32,0000.23,0000.05,-000.33,-000.18,0000.09,0000.05,26.1,00.0,0637.1,34.7
2016-11-29T01:05:00Z,0000388,01000608,0002.58,0001.03,0000.99,0000.64,0000.14,-000.21,0000.39,0000.29,0000.47,26.1,00.0,0637.2,34.7
2016-11-29T01:06:00Z,0000388,01000608,0001.51,0000.75,0000.85,0000.36,0000.28,0000.05,0000.06,0000.09,-000.05,26.1,00.0,0637.2,34.7
2016-11-29T01:07:00Z,0000388,01000608,0001.55,0001.03,0000.81,0000.04,-000.03,0000.27,0000.20,-000.01,-000.02,26.1,00.0,0637.3,34.7
2016-11-29T01:08:00Z,0000388,01000608,0001.27,0001.53,0000.23,0000.01,0000.08,0000.21,-000.16,0000.35,-000.04,26.1,00.0,0637.3,34.7
2016-11-29T01:09:00Z,0000388,01000608,0001.52,0000.89,0000.49,0000.07,0000.44,-000.09,0000.30,0000.12,0000.34,26.1,00.0,0637.3,34.7
2016-11-29T01:10:00Z,0000388,01000608,0001.73,0000.71,0000.19,0000.16,0000.23,-000.31,0000.20,0000.01,-000.03,26.1,00.0,0637.3,34.7
2016-11-29T01:11:00Z,0000388,01000608,0001.89,0000.64,0000.57,0000.61,-000.01,0000.40,0000.22,0000.22,0000.16,26.0,00.0,0637.3,34.7
2016-11-29T01:12:00Z,0000388,01000608,0001.54,0000.98,0001.03,0001.13,0000.18,-000.25,0000.23,0000.23,0000.28,26.0,00.0,0637.3,34.7
2016-11-29T01:13:00Z,0000388,01000608,0002.32,0001.22,0000.58,0000.45,0000.25,-000.02,0000.27,0000.30,0000.30,26.0,00.0,0637.3,34.7
2016-11-29T01:14:00Z,0000388,01000608,0001.90,0000.98,0000.39,0000.76,0000.42,0000.15,-000.06,0000.07,0000.13,26.0,00.0,0637.2,34.7
2016-11-29T01:15:00Z,0000388,01000608,0002.01,0001.49,0000.53,0000.32,-000.24,0000.25,0000.24,0000.15,-000.17,26.0,00.0,0637.2,34.7
2016-11-29T01:16:00Z,0000388,01000608,0002.09,0001.58,0000.53,0000.61,0000.46,-000.03,0000.24,-000.02,-000.02,26.0,00.0,0637.2,34.7
2016-11-29T01:17:00Z,0000388,01000608,0002.53,0000.91,0000.50,0000.48,0000.32,0000.27,0000.03,0000.23,0000.23,26.0,00.0,0637.2,34.7
2016-11-29T01:18:00Z,0000388,01000608,0002.39,0000.96,0000.37,0000.37,0000.31,0000.30,0000.22,0000.06,0000.28,26.0,00.0,0637.2,34.7
2016-11-29T01:19:00Z,0000388,01000608,0001.75,0000.50,0000.28,0000.37,0000.24,0000.09,0000.30,0000.32,-000.10,26.0,00.0,0637.1,34.7
2016-11-29T01:20:00Z,0000388,01000608,0001.82,0000.96,0000.25,0000.43,0000.67,0000.01,0000.07,0000.08,0000.25,26.0,00.0,0637.1,34.7
2016-11-29T01:21:00Z,0000388,01000608,0002.32,0001.17,0000.37,0000.26,0000.20,-000.22,0000.21,0000.33,0000.18,26.0,00.0,0637.1,34.7
2016-11-29T01:22:00Z,0000388,01000608,0002.52,0000.99,0000.69,0000.82,0000.42,-000.25,0000.24,0000.08,-000.17,26.0,00.0,0637.1,34.7
2016-11-29T01:23:00Z,0000388,01000608,0002.80,0000.86,0000.30,0000.65,0000.39,-000.07,-000.01,0000.19,0000.68,26.0,00.0,0637.1,34.7
2016-11-29T01:24:00Z,0000388,01000608,0002.53,0001.52,0000.91,0000.36,-000.31,0000.29,0000.19,-000.14,-000.10,26.0,00.0,0637.1,34.7
2016-11-29T01:25:00Z,0000388,01000608,0002.57,0000.94,0000.27,-000.71,0000.43,-000.26,0000.24,0000.39,-000.01,26.0,00.0,0637.1,34.7
2016-11-29T01:26:00Z,0000388,01000608,0000.95,0000.66,0000.67,0000.14,-000.29,0000.40,0000.31,0000.21,0000.29,26.0,00.0,0637.0,34.7
2016-11-29T01:27:00Z,0000388,01000608,0002.14,0001.33,0000.65,0000.48,-000.01,-000.01,0000.25,0000.13,0000.26,26.0,00.0,0637.1,34.7
2016-11-29T01:28:00Z,0000388,01000608,0003.16,0001.55,0000.32,0000.44,0000.17,0000.18,-000.07,0000.10,-000.21,26.0,00.0,0637.1,34.7
2016-11-29T01:29:00Z,0000388,01000608,0002.89,0001.16,0000.54,0000.14,-000.03,0000.12,0000.28,0000.26,0000.17,26.0,00.0,0637.0,34.7
2016-11-29T01:30:00Z,0000388,01000608,0001.16,0001.38,0000.66,0000.26,0000.46,0000.10,0000.21,0000.24,0000.14,26.0,00.0,0637.0,34.7
2016-11-29T01:31:00Z,0000388,01000608,0001.90,0000.86,0000.33,0000.36,0000.27,-000.09,0000.13,-000.02,0000.17,26.0,00.0,0637.1,34.7
2016-11-29T01:32:00Z,0000388,01000608,0001.62,0001.58,0000.89,0000.13,0000.72,0000.07,0000.27,0000.13,-000.01,26.0,00.0,0637.1,34.7
2016-11-29T01:33:00Z,0000388,01000608,0002.50,0001.44,0000.45,0000.21,-000.05,0000.27,0000.24,0000.35,0000.40,26.0,00.0,0637.1,34.7
2016-11-29T01:34:00Z,0000388,01000608,0002.65,0001.19,0000.88,0000.35,0000.21,0000.15,0000.09,0000.07,-000.08,26.0,00.0,0637.1,34.7
2016-11-29T01:35:00Z,0000388,01000608,0002.32,0001.20,0001.17,0000.53,0000.25,-000.09,-000.01,0000.21,0000.34,26.0,00.0,0637.2,34.7
2016-11-29T01:36:00Z,0000388,01000608,0002.36,0000.94,0000.78,-000.00,-000.08,0000.26,0000.22,0000.18,0000.06,26.0,00.0,0637.2,34.7
2016-11-29T01:37:00Z,0000388,01000608,0002.45,0001.50,0000.37,-000.52,-000.01,-000.01,0000.31,0000.13,-000.12,25.9,00.0,0637.1,34.7
2016-11-29T01:38:00Z,0000388,01000608,0002.49,0001.22,0000.87,0000.18,0000.05,0000.07,0000.04,0000.11,0000.40,25.9,00.0,0637.2,34.7
2016-11-29T01:39:00Z,0000388,01000608,0001.51,0001.31,0000.48,0000.36,0000.10,0000.05,0000.27,0000.13,0000.23,25.9,00.0,0637.1,34.7
2016-11-29T01:40:00Z,0000388,01000608,0001.64,0001.05,0000.78,0000.73,0000.72,-000.11,0000.11,0000.30,-000.16,25.9,00.0,0637.2,34.7
2016-11-29T01:41:00Z,0000388,01000608,0001.36,0000.75,0000.47,0000.63,0000.46,-000.05,0000.38,0000.17,0000.15,25.9,00.0,0637.2,34.7
2016-11-29T01:42:00Z,0000388,01000608,0002.46,0001.55,0000.79,0000.07,-000.07,-000.25,0000.11,0000.01,0000.32,25.9,00.0,0637.3,34.7
2016-11-29T01:43:00Z,0000388,01000608,0001.96,0001.48,0000.85,-000.23,0000.57,0000.09,0000.15,0000.23,-000.24,25.9,00.0,0637.3,34.7
2016-11-29T01:44:00Z,0000388,01000608,0002.87,0001.15,0000.21,0000.75,0000.56,-000.26,0000.20,0000.22,0000.44,25.9,00.0,0637.3,34.7
2016-11-29T01:45:00Z,0000388,01000608,0001.72,0001.18,0001.06,0000.51,0000.43,0000.24,0000.41,0000.11,0000.07,25.9,00.0,0637.3,34.7
2016-11-29T01:46:00Z,0000388,01000608,0002.59,0001.40,0000.60,0000.09,0000.23,0000.35,0000.02,0000.28,0000.05,25.9,00.0,0637.3,34.7
2016-11-29T01:47:00Z,0000388,01000608,0001.87,0001.14,0000.72,0000.48,0000.11,0000.50,0000.17,-000.10,0000.07,25.9,00.0,0637.3,34.7
2016-11-29T01:48:00Z,0000388,01000608,0002.70,0001.02,0000.71,0000.43,0000.18,0000.38,0000.13,0000.44,0000.29,25.9,00.0,0637.3,34.7
2016-11-29T01:49:00Z,0000388,01000608,0002.83,0001.35,0000.98,0000.53,0000.09,0000.12,0000.18,-000.00,0000.20,25.9,00.0,0637.4,34.7
2016-11-29T01:50:00Z,0000388,01000608,0001.76,0001.18,0000.75,0000.27,0000.53,0000.28,0000.10,0000.07,0000.14,25.9,00.0,0637.4,34.7
2016-11-29T01:51:00Z,0000388,01000608,0001.59,0001.14,0000.37,0000.41,-000.10,-000.27,0000.05,0000.28,0000.05,25.9,00.0,0637.4,34.7
2016-11-29T01:52:00Z,0000388,01000608,0003.30,0001.34,0000.18,0000.23,0000.45,-000.13,0000.11,0000.23,0000.09,25.9,00.0,0637.4,34.7
2016-11-29T01:53:00Z,0000388,01000608,0001.75,0000.29,0000.48,0000.60,0000.45,0000.23,0000.27,0000.07,-000.21,25.9,00.0,0637.4,34.7
2016-11-29T01:54:00Z,0000388,01000608,0001.89,0000.80,0000.31,0000.86,0000.07,0000.11,0000.23,0000.22,0000.49,25.9,00.0,0637.5,34.7
2016-11-29T01:55:00Z,0000388,01000608,0002.89,0001.23,0000.81,0000.50,0000.35,-000.09,0000.17,0000.02,0000.09,25.9,00.0,0637.5,34.7
2016-11-29T01:56:00Z,0000388,01000608,0001.21,0000.96,0000.65,0000.86,0000.21,0000.08,0000.18,0000.32,-000.02,25.9,00.0,0637.5,34.7
2016-11-29T01:57:00Z,0000388,41000608,,,,,,,,,,25.9,00.0,0637.4,34.7
2016-11-29T01:58:00Z,0000388,61000608,,,,,,,,,,25.8,00.0,0636.5,34.6
2016-11-29T01:59:00Z,0000388,21000608,,,,,,,,,,25.8,00.0,0636.5,34.7
2016-11-29T02:00:00Z,0000388,21000608,,,,,,,,,,25.9,00.0,0636.4,34.7
2016-11-29T02:01:00Z,0000388,21000608,,,,,,,,,,25.9,00.0,0636.4,34.7
2016-11-29T02:02:00Z,0000388,21000608,,,,,,,,,,25.9,00.0,0636.4,34.7
2016-11-29T02:03:00Z,0000388,61000608,,,,,,,,,,25.9,00.0,0636.4,34.7
2016-11-29T02:04:00Z,0000388,41000608,0003.93,0001.71,0000.91,0000.70,0000.18,0000.27,0000.32,0000.21,-000.10,25.9,00.0,0637.2,34.7
2016-11-29T02:05:00Z,0000388,01000608,0002.71,0001.99,0001.03,-000.54,0000.97,0000.07,0000.12,0000.06,0000.18,25.9,00.0,0637.3,34.7
2016-11-29T02:06:00Z,0000388,01000608,0002.83,0001.75,0000.49,0000.74,0000.43,0000.14,0000.23,0000.13,0000.18,25.9,00.0,0637.3,34.7
2016-11-29T02:07:00Z,0000388,01000608,0002.33,0001.37,0000.99,0000.25,0000.15,0000.42,0000.02,0000.29,-000.09,25.9,00.0,0637.3,34.7
2016-11-29T02:08:00Z,0000388,01000608,0003.38,0001.15,0000.79,-000.15,0000.38,0000.44,0000.28,0000.22,0000.37,25.9,00.0,0637.3,34.7
2016-11-29T02:09:00Z,0000388,01000608,0002.55,0001.27,0000.71,-000.01,0000.94,0000.15,0000.28,0000.00,0000.23,25.9,00.0,0637.3,34.7
2016-11-29T02:10:00Z,0000388,01000608,0002.07,0001.27,0000.20,0000.03,0000.28,0000.10,0000.31,0000.29,-000.11,25.8,00.0,0637.3,34.7
2016-11-29T02:11:00Z,0000388,01000608,0002.37,0001.66,0000.65,0000.50,0000.43,0000.46,-000.03,0000.09,0000.26,25.8,00.0,0637.3,34.7
2016-11-29T02:12:00Z,0000388,01000608,0002.20,0001.30,0001.01,0000.37,0000.29,0000.38,0000.35,0000.08,0000.04,25.8,00.0,0637.3,34.7
2016-11-29T02:13:00Z,0000388,01000608,0001.42,0001.10,0000.59,0000.03,-000.14,0000.32,0000.24,0000.18,0000.18,25.8,00.0,0637.4,34.6
2016-11-29T02:14:00Z,0000388,01000608,0001.76,0001.39,0000.69,-000.21,0000.40,0000.14,0000.05,0000.32,0000.35,25.8,00.0,0637.4,34.6
2016-11-29T02:15:00Z,0000388,01000608,0002.52,0001.96,0000.59,0000.35,0000.48,0000.35,0000.32,0000.22,0000.00,25.8,00.0,0637.4,34.6
2016-11-29T02:16:00Z,0000388,01000608,0002.24,0001.08,0000.57,0000.03,0000.65,0000.15,0000.11,0000.11,0000.16,25.8,00.0,0637.4,34.6
2016-11-29T02:17:00Z,0000388,01000608,0001.82,0001.12,0000.92,0000.22,0000.90,0000.09,0000.08,0000.11,0000.24,25.8,00.0,0637.4,34.7
2016-11-29T02:18:00Z,0000388,01000608,0003.51,0001.05,0000.36,-000.37,0000.64,0000.36,0000.23,0000.04,-000.07,25.8,00.0,0637.5,34.7
2016-11-29T02:19:00Z,0000388,01000608,0002.18,0001.18,0000.55,-000.19,0000.62,0000.60,0000.14,0000.10,0000.32,25.8,00.0,0637.5,34.7
2016-11-29T02:20:00Z,0000388,01000608,0002.17,0000.74,0000.69,0000.47,0000.41,0000.09,0000.04,0000.40,0000.15,25.8,00.0,0637.6,34.7
2016-11-29T02:21:00Z,0000388,01000608,0002.48,0001.40,0000.60,0000.72,-000.14,0000.08,0000.36,0000.06,-000.12,25.8,00.0,0637.6,34.7
2016-11-29T02:22:00Z,0000388,01000608,0001.47,0001.33,0000.90,0000.16,0000.55,0000.08,0000.22,0000.24,0000.33,25.8,00.0,0637.7,34.7
2016-11-29T02:23:00Z,0000388,01000608,0001.90,0001.27,0000.85,0000.13,0000.70,0000.05,0000.08,0000.22,0000.10,25.8,00.0,0637.7,34.7
2016-11-29T02:24:00Z,0000388,01000608,0001.09,0001.96,0001.28,0000.43,0000.99,0000.36,0000.10,-000.11,0000.18,25.7,00.0,0637.7,34.7
2016-11-29T02:25:00Z,0000388,01000608,0003.06,0001.33,0000.63,0000.64,0000.25,0000.33,0000.39,0000.24,-000.12,25.7,00.0,0637.7,34.7
2016-11-29T02:26:00Z,0000388,01000608,0002.58,0001.29,0000.74,0000.23,0000.59,0000.25,0000.18,0000.17,0000.13,25.7,00.0,0637.7,34.7
2016-11-29T02:27:00Z,0000388,01000608,0001.99,0001.32,0000.50,0000.23,0000.32,0000.29,0000.26,0000.15,0000.41,25.7,00.0,0637.8,34.6
2016-11-29T02:28:00Z,0000388,01000608,0002.33,0001.08,0000.91,0000.37,0000.48,0000.06,0000.03,0000.18,-000.11,25.7,00.0,0637.8,34.6
2016-11-29T02:29:00Z,0000388,01000608,0001.90,0001.45,0000.76,-000.24,0000.42,0000.56,0000.11,0000.25,0000.50,25.7,00.0,0637.8,34.6
2016-11-29T02:30:00Z,0000388,01000608,0002.33,0001.07,0000.97,0000.25,0000.60,0000.41,0000.38,0000.16,-000.05,25.7,00.0,0637.8,34.6
2016-11-29T02:31:00Z,0000388,01000608,0002.60,0001.66,0000.51,0000.49,0000.15,0000.10,0000.17,0000.09,0000.06,25.8,00.0,0637.8,34.6
2016-11-29T02:32:00Z,0000388,01000608,0002.31,0001.08,0001.20,0000.30,0000.21,0000.45,0000.09,0000.27,0000.11,25.7,00.0,0637.9,34.7
2016-11-29T02:33:00Z,0000388,01000608,0003.25,0001.18,0000.66,0000.36,0000.20,0000.29,0000.13,0000.16,0000.40,25.8,00.0,0637.9,34.7
2016-11-29T02:34:00Z,0000388,01000608,0001.97,0002.08,0001.45,-000.23,0000.35,0000.63,0000.05,0000.22,-000.20,25.8,00.0,0637.9,34.7
2016-11-29T02:35:00Z,0000388,01000608,0003.29,0001.45,0000.35,0000.13,0000.41,0000.28,0000.24,0000.14,0000.34,25.7,00.0,0637.9,34.7
2016-11-29T02:36:00Z,0000388,01000608,0002.83,0001.73,0000.74,0000.41,0000.55,0000.50,0000.05,-000.02,0000.10,25.7,00.0,0637.9,34.7
2016-11-29T02:37:00Z,0000388,01000608,0002.06,0001.87,0000.18,-000.01,0000.30,0000.32,0000.42,0000.09,-000.06,25.7,00.0,0637.9,34.7
2016-11-29T02:38:00Z,0000388,01000608,0002.97,0001.43,0000.65,0000.35,0000.50,0000.41,0000.01,0000.26,0000.46,25.7,00.0,0637.9,34.7
2016-11-29T02:39:00Z,0000388,01000608,0002.50,0001.44,0000.65,0000.37,0000.46,0000.39,0000.21,0000.10,-000.15,25.7,00.0,0637.9,34.7
2016-11-29T02:40:00Z,0000388,01000608,0001.92,0001.77,0000.81,0000.78,0000.43,0000.41,0000.29,0000.10,0000.12,25.7,00.0,0637.9,34.7
2016-11-29T02:41:00Z,0000388,01000608,0003.09,0001.27,0000.38,0000.81,0000.69,0000.32,0000.12,0000.38,0000.24,25.6,00.0,0637.9,34.7
2016-11-29T02:42:00Z,0000388,01000608,0001.80,0001.13,0000.85,0000.29,0000.29,0000.55,0000.40,0000.08,-000.01,25.6,00.0,0637.9,34.6
2016-11-29T02:43:00Z,0000388,01000608,0002.30,0001.47,0000.23,0000.27,0000.17,0000.22,-000.14,0000.22,-000.04,25.6,00.0,0637.9,34.6
2016-11-29T02:44:00Z,0000388,01000608,0002.31,0000.89,0000.55,-000.12,0000.05,0000.24,0000.30,-000.02,0000.48,25.7,00.0,0637.9,34.6
2016-11-29T02:45:00Z,0000388,01000608,0003.09,0001.55,0000.47,0000.82,0000.94,0000.17,0000.21,0000.37,-000.13,25.7,00.0,0637.9,34.6
2016-11-29T02:46:00Z,0000388,01000608,0002.07,0001.76,0000.55,0000.52,0000.67,0000.09,0000.09,0000.03,0000.40,25.6,00.0,0637.9,34.6
2016-11-29T02:47:00Z,0000388,01000608,0002.46,0001.41,0000.73,-000.20,0000.91,0000.06,0000.37,0000.36,-000.09,25.6,00.0,0637.9,34.6
2016-11-29T02:48:00Z,0000388,01000608,0002.14,0001.03,0000.40,0000.11,0000.63,-000.31,-000.01,-000.02,0000.33,25.7,00.0,0637.9,34.7
2016-11-29T02:49:00Z,0000388,01000608,0002.29,0001.45,0000.61,-000.18,0000.42,0000.26,0000.13,-000.02,-000.21,25.6,00.0,0637.9,34.7
2016-11-29T02:50:00Z,0000388,01000608,0002.35,0001.32,0000.22,0000.08,0000.88,0000.17,0000.34,0000.45,0000.37,25.6,00.0,0637.9,34.7
2016-11-29T02:51:00Z,0000388,01000608,0001.83,0000.84,0000.55,0000.32,0000.01,-000.10,0000.08,-000.02,0000.07,25.6,00.0,0637.9,34.7
2016-11-29T02:52:00Z,0000388,01000608,0002.27,0001.57,0000.82,0000.52,0000.27,0000.11,0000.08,0000.18,0000.11,25.6,00.0,0637.9,34.7
2016-11-29T02:53:00Z,0000388,01000608,0001.78,0001.34,0000.99,0001.10,0000.01,0000.00,0000.15,0000.32,0000.35,25.6,00.0,0637.9,34.7
2016-11-29T02:54:00Z,0000388,01000608,0001.97,0001.69,0000.63,0000.59,0000.46,-000.01,0000.15,0000.04,-000.25,25.6,00.0,0637.9,34.7
2016-11-29T02:55:00Z,0000388,01000608,0003.27,0001.61,0000.57,-000.15,0000.50,0000.12,0000.37,-000.04,0000.18,25.6,00.0,0637.9,34.7
2016-11-29T02:56:00Z,0000388,01000608,0001.43,0001.00,0000.36,0000.41,0000.32,-000.18,0000.16,0000.37,0000.22,25.5,00.0,0637.9,34.7
2016-11-29T02:57:00Z,0000388,41000608,,,,,,,,,,25.6,00.0,0638.0,34.6
2016-11-29T02:58:00Z,0000388,61000608,,,,,,,,,,25.5,00.0,0636.9,34.6
2016-11-29T02:59:00Z,0000388,21000608,,,,,,,,,,25.5,00.0,0636.9,34.6
2016-11-29T03:00:00Z,0000388,21000608,,,,,,,,,,25.5,00.0,0636.9,34.6
2016-11-29T03:01:00Z,0000388,21000608,,,,,,,,,,25.5,00.0,0636.9,34.6
2016-11-29T03:02:00Z,0000388,21000608,,,,,,,,,,25.5,00.0,0636.9,34.6
2016-11-29T03:03:00Z,0000388,61000608,,,,,,,,,,25.5,00.0,0636.9,34.6
2016-11-29T03:04:00Z,0000388,41000608,0001.92,0001.00,0000.40,0000.59,-000.11,0000.33,0000.24,0000.15,0000.35,25.6,00.0,0637.8,34.6
2016-11-29T03:05:00Z,0000388,01000608,0002.06,0000.61,0000.78,0000.07,0000.33,0000.34,0000.26,0000.44,-000.23,25.6,00.0,0637.8,34.6
2016-11-29T03:06:00Z,0000388,01000608,0002.95,0001.83,0000.59,0000.45,0000.40,0000.27,0000.28,-000.05,0000.35,25.6,00.0,0637.8,34.6
2016-11-29T03:07:00Z,0000388,01000608,0003.04,0001.00,0000.58,0000.09,0000.85,0000.20,0000.03,0000.13,0000.14,25.6,00.0,0637.8,34.6
2016-11-29T03:08:00Z,0000388,01000608,0002.01,0000.68,0001.19,0001.12,0000.11,0000.12,0000.37,0000.19,0000.05,25.6,00.0,0637.8,34.6
2016-11-29T03:09:00Z,0000388,01000608,0002.14,0001.28,0000.75,0000.37,0000.09,0000.43,0000.05,0000.14,0000.22,25.5,00.0,0637.8,34.6
2016-11-29T03:10:00Z,0000388,01000608,0002.22,0001.22,0000.54,0000.25,0000.21,0000.36,-000.01,0000.23,0000.13,25.5,00.0,0637.8,34.6
2016-11-29T03:11:00Z,0000388,01000608,0002.26,0000.74,0000.93,0000.19,0000.19,0000.21,0000.23,0000.09,0000.14,25.5,00.0,0637.8,34.6